Weather History for Carrollton, GA

Change the Weather History Date:

Wednesday, December 12, 2012

  Actual Average Record
Temperature  
Mean Temperature 43 °F -  
Max Temperature 51 °F 56 °F 77 °F (1971)
Min Temperature 35 °F 35 °F 5 °F (1962)
Degree Days  
Heating Degree Days 22    
Moisture  
Dew Point 34 °F    
Average Humidity 76    
Maximum Humidity 87    
Minimum Humidity 58    
Precipitation  
Precipitation 0.00 in - - ()
Sea Level Pressure  
Sea Level Pressure 30.18 in    
Wind  
Wind Speed 7 mph (NNE)    
Max Wind Speed 12 mph    
Max Gust Speed -    
Visibility 10 miles    
Events Rain    
Averages and records for this station are not official NWS values.
T = Trace of Precipitation, MM = Missing Value Source: NWS Daily Summary

Daily Weather History Graph

Daily Weather History Graph

Search for Another Location

Airport:

Trip Planner

Search our weather history database for the weather conditions in past years. The results will help you decide how hot, cold, wet, or windy it might be!

Date:

Astronomy

Dec. 12, 2012 Rise Set
Actual Time 7:36 AM EST 5:33 PM EST
Civil Twilight 7:08 AM EST 6:00 PM EST
Nautical Twilight 6:37 AM EST 6:31 PM EST
Astronomical Twilight 6:07 AM EST 7:02 PM EST
Moon 6:40 AM EST (12/12) 5:08 PM EST (12/12)
Length of Visible Light 10h 52m
Length of Day
9h 57m
Waning Crescent, 1% of the Moon is Illuminated
Dec 12
Waning Crescent
Dec 13
New
Dec 20
First Quarter
Dec 28
Full
Jan 4
Last Quarter

Hourly Weather History & Observations

Time (EST) Temp. Windchill Dew Point Humidity Pressure Visibility Wind Dir Wind Speed Gust Speed Precip Events Conditions
12:15 AM 35.6 °F 28.6 °F 32.0 °F 87% 30.15 in 10.0 mi NNW 9.2 mph - N/A   Clear
12:35 AM 35.6 °F 28.6 °F 32.0 °F 87% 30.14 in 10.0 mi North 9.2 mph - N/A   Clear
12:55 AM 35.6 °F 29.9 °F 32.0 °F 87% 30.14 in 10.0 mi North 6.9 mph - N/A   Clear
1:15 AM 35.6 °F 29.2 °F 32.0 °F 87% 30.15 in 10.0 mi North 8.1 mph - N/A   Clear
1:35 AM 35.6 °F 29.9 °F 32.0 °F 87% 30.15 in 10.0 mi North 6.9 mph - N/A   Clear
1:55 AM 35.6 °F 29.9 °F 32.0 °F 87% 30.14 in 10.0 mi North 6.9 mph - N/A   Clear
2:15 AM 35.6 °F 30.7 °F 32.0 °F 87% 30.14 in 10.0 mi NNE 5.8 mph - N/A   Clear
2:55 AM 35.6 °F 29.2 °F 32.0 °F 87% 30.15 in 10.0 mi North 8.1 mph - N/A   Clear
3:15 AM 35.6 °F 29.2 °F 32.0 °F 87% 30.14 in 10.0 mi North 8.1 mph - N/A   Clear
3:35 AM 35.6 °F 31.7 °F 32.0 °F 87% 30.14 in 10.0 mi North 4.6 mph - N/A   Clear
3:55 AM 35.6 °F 30.7 °F 32.0 °F 87% 30.14 in 10.0 mi North 5.8 mph - N/A   Clear
4:15 AM 35.6 °F 31.7 °F 32.0 °F 87% 30.15 in 10.0 mi North 4.6 mph - N/A   Clear
4:55 AM 35.6 °F 30.7 °F 32.0 °F 87% 30.14 in 10.0 mi NNE 5.8 mph - N/A   Clear
5:15 AM 35.6 °F 31.7 °F 32.0 °F 87% 30.14 in 10.0 mi North 4.6 mph - N/A   Clear
5:35 AM 35.6 °F 30.7 °F 32.0 °F 87% 30.14 in 10.0 mi North 5.8 mph - N/A   Clear
5:55 AM 35.6 °F 29.9 °F 32.0 °F 87% 30.14 in 10.0 mi North 6.9 mph - N/A   Clear
6:35 AM 35.6 °F 32.8 °F 32.0 °F 87% 30.16 in 10.0 mi North 3.5 mph - N/A   Clear
6:55 AM 35.6 °F - 32.0 °F 87% 30.17 in 10.0 mi Calm Calm - N/A   Clear
7:15 AM 35.6 °F 31.7 °F 32.0 °F 87% 30.17 in 10.0 mi North 4.6 mph - N/A   Clear
7:35 AM 35.6 °F 30.7 °F 32.0 °F 87% 30.17 in 10.0 mi North 5.8 mph - N/A   Clear
7:55 AM 35.6 °F 30.7 °F 32.0 °F 87% 30.18 in 10.0 mi NNW 5.8 mph - N/A   Clear
8:15 AM 35.6 °F 29.9 °F 32.0 °F 87% 30.19 in 10.0 mi North 6.9 mph - N/A   Clear
8:35 AM 35.6 °F 29.9 °F 32.0 °F 87% 30.18 in 10.0 mi North 6.9 mph - N/A   Clear
8:55 AM 37.4 °F 33.8 °F 32.0 °F 81% 30.18 in 10.0 mi North 4.6 mph - N/A   Clear
9:15 AM 37.4 °F 32.8 °F 33.8 °F 87% 30.19 in 10.0 mi North 5.8 mph - N/A   Clear
9:35 AM 37.4 °F 33.8 °F 32.0 °F 81% 30.20 in 10.0 mi NNE 4.6 mph - N/A   Clear
9:55 AM 37.4 °F 33.8 °F 32.0 °F 81% 30.20 in 10.0 mi NE 4.6 mph - N/A   Clear
10:15 AM 39.2 °F 35.9 °F 33.8 °F 81% 30.20 in 10.0 mi North 4.6 mph - N/A   Clear
10:35 AM 41.0 °F 38.0 °F 33.8 °F 76% 30.20 in 10.0 mi NNE 4.6 mph - N/A   Clear
10:55 AM 41.0 °F 36.4 °F 33.8 °F 76% 30.20 in 10.0 mi NNE 6.9 mph - N/A   Clear
11:15 AM 41.0 °F 38.0 °F 33.8 °F 76% 30.20 in 10.0 mi NNE 4.6 mph - N/A   Clear
11:35 AM 42.8 °F 40.1 °F 33.8 °F 70% 30.21 in 10.0 mi North 4.6 mph - N/A   Clear
11:55 AM 42.8 °F 41.1 °F 33.8 °F 70% 30.21 in 10.0 mi NE 3.5 mph - N/A   Clear
12:15 PM 44.6 °F 41.4 °F 33.8 °F 66% 30.19 in 10.0 mi NE 5.8 mph - N/A   Clear
12:35 PM 44.6 °F 41.4 °F 35.6 °F 71% 30.19 in 10.0 mi NE 5.8 mph - N/A   Clear
12:55 PM 46.4 °F 42.9 °F 35.6 °F 66% 30.17 in 10.0 mi NE 6.9 mph - N/A   Clear
1:15 PM 46.4 °F 44.3 °F 35.6 °F 66% 30.17 in 10.0 mi NE 4.6 mph - N/A   Scattered Clouds
1:35 PM 48.2 °F - 35.6 °F 62% 30.17 in 10.0 mi NE 11.5 mph - N/A   Scattered Clouds
1:55 PM 50.0 °F - 37.4 °F 62% 30.17 in 10.0 mi NE 8.1 mph - N/A   Clear
2:15 PM 51.8 °F - 37.4 °F 58% 30.17 in 10.0 mi Calm Calm - N/A   Scattered Clouds
2:35 PM 51.8 °F - 37.4 °F 58% 30.17 in 10.0 mi NNE 5.8 mph - N/A   Clear
2:55 PM 51.8 °F - 37.4 °F 58% 30.17 in 10.0 mi ENE 11.5 mph - N/A   Clear
3:15 PM 51.8 °F - 37.4 °F 58% 30.17 in 10.0 mi ENE 8.1 mph - N/A   Mostly Cloudy
3:35 PM 50.0 °F - 37.4 °F 62% 30.17 in 10.0 mi East 6.9 mph - N/A   Overcast
4:15 PM 50.0 °F - 37.4 °F 62% 30.18 in 10.0 mi NE 6.9 mph - N/A   Overcast
4:35 PM 50.0 °F - 37.4 °F 62% 30.19 in 10.0 mi NE 6.9 mph - N/A   Overcast
4:55 PM 50.0 °F - 39.2 °F 66% 30.19 in 10.0 mi NE 5.8 mph - N/A   Overcast
5:15 PM 48.2 °F - 39.2 °F 71% 30.19 in 10.0 mi NE 3.5 mph - N/A   Overcast
5:35 PM 48.2 °F - 39.2 °F 71% 30.19 in 10.0 mi North 5.8 mph - N/A Rain Light Rain
5:55 PM 48.2 °F - 41.0 °F 76% 30.21 in 10.0 mi NW 3.5 mph - N/A   Overcast
6:15 PM 48.2 °F - 41.0 °F 76% 30.19 in 10.0 mi NNE 11.5 mph - N/A   Overcast
6:55 PM 46.4 °F 43.5 °F 37.4 °F 71% 30.23 in 10.0 mi North 5.8 mph - N/A   Overcast
7:15 PM 46.4 °F 43.5 °F 37.4 °F 71% 30.23 in 10.0 mi North 5.8 mph - N/A   Overcast
7:35 PM 46.4 °F 41.5 °F 35.6 °F 66% 30.22 in 10.0 mi North 10.4 mph - N/A   Overcast
8:15 PM 44.6 °F 39.7 °F 35.6 °F 71% 30.21 in 10.0 mi NE 9.2 mph - N/A   Scattered Clouds
8:35 PM 44.6 °F 40.2 °F 33.8 °F 66% 30.20 in 10.0 mi NE 8.1 mph - N/A   Clear
8:55 PM 42.8 °F 38.6 °F 33.8 °F 70% 30.21 in 10.0 mi NNE 6.9 mph - N/A   Clear
9:15 PM 42.8 °F 40.1 °F 33.8 °F 70% 30.21 in 10.0 mi NE 4.6 mph - N/A   Clear
9:35 PM 42.8 °F 41.1 °F 32.0 °F 66% 30.22 in 10.0 mi North 3.5 mph - N/A   Scattered Clouds
9:55 PM 41.0 °F 38.0 °F 32.0 °F 70% 30.22 in 10.0 mi North 4.6 mph - N/A   Scattered Clouds
10:15 PM 41.0 °F 38.0 °F 33.8 °F 76% 30.22 in 10.0 mi North 4.6 mph - N/A   Mostly Cloudy
10:35 PM 42.8 °F 41.1 °F 33.8 °F 70% 30.22 in 10.0 mi NNE 3.5 mph - N/A   Overcast
10:55 PM 42.8 °F 41.1 °F 33.8 °F 70% 30.23 in 10.0 mi NW 3.5 mph - N/A   Overcast
11:15 PM 42.8 °F 41.1 °F 33.8 °F 70% 30.24 in 10.0 mi NW 3.5 mph - N/A   Overcast
11:35 PM 42.8 °F 39.3 °F 35.6 °F 76% 30.24 in 10.0 mi North 5.8 mph - N/A   Overcast
11:55 PM 42.8 °F 39.3 °F 33.8 °F 70% 30.24 in 10.0 mi North 5.8 mph - N/A   Overcast